Location: Heisede
(52.2582°N, 9.8523°E)
Time: 22:24:51
(UTC+00:00)

Meteor 2-10 Rocket - Visible Passes

Search period start: 18 April 2026 00:00
Search period end: 28 April 2026 00:00
Orbit: 732 x 882 km, 81.2° (Epoch: 18 April)

Date Brightness Start Highest point End Pass type
(mag) Time Alt. Az. Time Alt. Az. Time Alt. Az.
18 Apr 4.8 02:36:14 10° N 02:41:02 42° ENE 02:45:56 10° SE visible
19 Apr 5.3 02:11:18 10° N 02:15:50 32° ENE 02:20:27 10° SE visible
20 Apr 5.8 01:46:26 10° N 01:50:35 25° ENE 01:54:48 10° ESE visible
20 Apr 3.6 03:27:59 10° NNW 03:32:58 59° W 03:38:04 10° S visible
21 Apr 6.1 01:21:40 10° NNE 01:25:17 19° ENE 01:28:56 10° ESE visible
21 Apr 3.5 03:02:50 10° NNW 03:07:56 80° W 03:13:10 10° S visible
22 Apr 6.3 00:57:05 10° NNE 00:59:57 15° NE 01:02:49 10° E visible
22 Apr 3.7 02:37:45 10° N 02:42:51 77° ENE 02:48:07 10° SSE visible
23 Apr 6.5 00:32:55 10° NNE 00:34:32 11° NE 00:36:10 10° ENE visible
23 Apr 4.2 02:12:42 10° N 02:17:44 57° ENE 02:22:55 10° SSE visible
24 Apr 4.7 01:47:42 10° N 01:52:34 42° ENE 01:57:35 10° SE visible
25 Apr 5.2 01:22:46 10° N 01:27:22 32° ENE 01:32:05 10° SE visible
25 Apr 3.9 03:04:39 10° NNW 03:09:31 44° W 03:14:32 10° SSW visible
26 Apr 5.6 00:57:54 10° N 01:02:08 25° ENE 01:06:27 10° ESE visible
26 Apr 3.6 02:39:27 10° NNW 02:44:32 60° W 02:49:46 10° S visible
27 Apr 6.0 00:33:08 10° NNE 00:36:50 19° ENE 00:40:35 10° ESE visible
27 Apr 3.5 02:14:19 10° NNW 02:19:29 81° W 02:24:51 10° S visible
